Regional Weather Roundup
Issued by NWS

Home | Current Version | Previous Version | Text Only | Print | Product List | Glossary Off
Versions: 1 2 3 4 5 6 7 8 9 10 11 12 13 14 15 16 17 18 19 20 21 22 23 24 25 26 27 28 29 30 31 32 33 34 35 36 37 38 39 40 41 42 43 44 45 46 47 48 49 50

000
ASUS43 KFSD 180510
RWRSD

WEATHER ROUNDUP FOR SOUTH DAKOTA
NATIONAL WEATHER SERVICE SIOUX FALLS SD
1200 AM CDT FRI APR 18 2014

NOTE: "FAIR" INDICATES FEW OR NO CLOUDS BELOW 12,000 FEET WITH NO
SIGNIFICANT WEATHER AND/OR OBSTRUCTIONS TO VISIBILITY.


SDZ001>005-009-010-012>017-180600-
NORTHWEST AND NORTH CENTRAL SOUTH DAKOTA

CITY           SKY/WX    TMP DP  RH WIND       PRES   REMARKS
BUFFALO          N/A     39  30  70 SE22      29.88F
FAITH            N/A     37  25  61 SE20G29   30.00F
MOBRIDGE       PTCLDY    33  22  63 SE15      30.10F WCI  23
$$

SDZ012>016-024>037-041>051-057-063-072>074-180600-
SOUTHWEST AND SOUTH CENTRAL SOUTH DAKOTA

CITY           SKY/WX    TMP DP  RH WIND       PRES   REMARKS
RAPID CTY ARPT MOCLDY    40  33  76 SE9       29.96F
PIERRE         CLOUDY    38  25  59 SE16      30.09S
CUSTER         PTCLDY    39  32  76 SW5       29.97F
ELLSWORTH AFB  CLOUDY    42  35  75 S13       29.95F
PHILIP         PTCLDY    35  26  69 E12       30.01F WCI  27
PINE RIDGE     CLEAR     48  36  63 S20G32    29.95F
SPEARFISH      FAIR      45  36  70 NE6       29.91F
WINNER         FAIR      36  23  59 SE14      30.09F
$$

SDZ004>011-016>023-039-040-180600-
NORTHEAST SOUTH DAKOTA

CITY           SKY/WX    TMP DP  RH WIND       PRES   REMARKS
ABERDEEN       CLOUDY    36  20  52 SE9       30.21F
WATERTOWN      CLOUDY    32  18  56 SE7       30.25S WCI  26
SISSETON         N/A     33  22  63 SW7       30.26F WCI  27
$$

SDZ017-020-022-023-036>040-048>070-180600-
SOUTHEAST SOUTH DAKOTA

CITY           SKY/WX    TMP DP  RH WIND       PRES   REMARKS
SIOUX FALLS    CLOUDY    36  26  67 E12       30.25F
HURON          PTCLDY    37  27  67 SE14      30.20F
CHAMBERLAIN      N/A     37  26  64 SE17      30.14S
MITCHELL       MOCLDY    38  25  59 SE13      30.21F
YANKTON        PTCLDY    39  27  60 E7        30.25S
$$

ABBREVIATIONS USED IN REMARKS
   TC - TEMPERATURE IN CELSIUS
  WCI - WIND CHILL INDEX
   HX - HEAT INDEX
  VSB - VISIBILITY




USA.gov is the U.S. government's official web portal to all federal, state and local government web resources and services.